Regional Weather Roundup
Issued by NWS

Home | Current Version | Previous Version | Text Only | Print | Product List | Glossary On
Versions: 1 2 3 4 5 6 7 8 9 10 11 12 13 14 15 16 17 18 19 20 21 22 23 24 25 26 27 28 29 30 31 32 33 34 35 36 37 38 39 40 41 42 43 44 45 46 47 48 49 50
000
ASUS43 KDTX 270810
RWRMI
MICHIGAN HOURLY REGIONAL WEATHER ROUNDUP
NATIONAL WEATHER SERVICE DETROIT/PONTIAC MI
400 AM EDT WED AUG 27 2014

NOTE: "FAIR" INDICATES FEW OR NO CLOUDS BELOW 12,000 FEET WITH NO
SIGNIFICANT WEATHER AND/OR OBSTRUCTION TO VISIBILITY.

MIZ047>049-052>055-059>063-066>070-074>076-081>083-270900-
SOUTHEAST LOWER MICHIGAN

CITY           SKY/WX    TMP DP  RH WIND       PRES   REMARKS
ADRIAN         CLEAR     68  66  93 N7        30.10R
ALMA           CLEAR     58  57  94 N7        30.12R
ANN ARBOR      PTCLDY    67  64  90 N6        30.09S
BAD AXE        CLOUDY    62  57  83 N3        30.12R
CARO           CLOUDY    64  60  87 E6        30.10S
DETROIT CITY   MOCLDY    69  63  81 NE7       30.08S
DETROIT        CLOUDY    68  66  93 NW6       30.08S
FLINT          CLOUDY    68  61  78 NE10      30.10R
GROSSE ILE     MOCLDY    70  66  88 N6        30.06S
HILLSDALE      CLEAR     66  66 100 CALM      30.11S
HOWELL         CLOUDY    65  64  99 CALM      30.09F FOG

CITY           SKY/WX    TMP DP  RH WIND       PRES   REMARKS
JACKSON        CLEAR     64  62  93 CALM      30.10F
LAMBERTVILLE   PTCLDY    70  64  83 CALM      30.09S
LANSING        MOCLDY    62  59  90 N5        30.11S
LAPEER         CLOUDY    64  59  85 CALM      30.11S
MASON          PTCLDY    62  61  96 CALM      30.10F
MONROE         PTCLDY    68  66  94 NW3       30.06F
MT. CLEMENS    PTCLDY    65  60  85 NE5       30.08S
PONTIAC        CLOUDY    68  65  90 N5        30.08F
PORT HOPE        N/A     64  54  69 VRB3      30.10S
PORT HURON     CLEAR     64  59  82 N3        30.09S
TRI CITIES     CLOUDY    67  62  84 CALM      30.12R
TROY           CLOUDY    68  63  83 NE8       30.10S
SAGINAW HB     PTCLDY    61  61 100 NE5       30.10S
$$
MIZ043>046-050>051-056>058-064>065-071>073-077>080-270900-
SOUTHWEST LOWER MICHIGAN

CITY           SKY/WX    TMP DP  RH WIND       PRES   REMARKS
BATTLE CREEK   CLEAR     64  60  87 CALM      30.11F
BENTON HARBOR  PTCLDY    60  60 100 CALM      30.12S
BIG RAPIDS     PTCLDY    54  54 100 CALM      30.12S FOG
COLDWATER      CLEAR     65  63  94 CALM      30.11S
FREMONT        FAIR      55  55  97 CALM      30.11F
HOLLAND        CLEAR     60  58  92 CALM      30.13R
GRAND RAPIDS   CLEAR     62  62 100 CALM      30.12S
IONIA          FAIR      62  60  93 CALM      30.11R
KALAMAZOO      CLEAR     60  58  92 CALM      30.10F
LUDINGTON      CLOUDY    57  56  98 CALM      30.12F
MARSHALL       CLEAR     61  60  97 W9        30.10F
MOUNT PLEASANT CLEAR     56  56  97 NW3       30.13R FOG
MUSKEGON       PTCLDY    59  56  89 CALM      30.12S
SOUTH HAVEN    CLEAR     60  59  98 CALM      30.12R
$$
MIZ016>042-270900-
NORTHERN LOWER MICHIGAN

CITY           SKY/WX    TMP DP  RH WIND       PRES   REMARKS
ALPENA         MOCLDY    54  51  90 MISG      30.13R
BEAVER ISLAND  MOCLDY    59  51  74 N3        30.13F
BELLAIRE       CLOUDY    56  55  93 CALM      30.13S
CADILLAC       MOCLDY    52  52  99 NW3       30.13S
CHARLEVOIX     MOCLDY    60  54  80 E3        30.16F
FRANKFORT      CLOUDY    62  54  75 CALM      30.14R
GAYLORD        MOCLDY    55  52  89 CALM      30.14S
GRAYLING       CLOUDY    55  55 100 CALM      30.14S
HARBOR SPRINGS CLOUDY    57  51  81 CALM      30.14S
HOUGHTON LAKE  PTCLDY    52  52 100 NE3       30.14S
MANISTEE       CLOUDY    55  54  94 CALM      30.15R
OSCODA         CLEAR     52  51  96 CALM      30.12R
PELLSTON       MOCLDY    49  48  97 CALM      30.14R
ROGERS CITY    MOCLDY    54  54 100 W3        30.13S
TRAVERSE CITY  CLOUDY    62  53  72 NE6       30.12F
$$
MIZ007>008-015-270900-
EASTERN UPPER MICHIGAN

CITY           SKY/WX    TMP DP  RH WIND       PRES   REMARKS
KINROSS        PTCLDY    50  48  93 W5        30.11F
MACKINAC ISLAN MOCLDY    54  50  86 NW6       30.12S
NEWBERRY       PTCLDY    49  47  94 W7        30.12R
S. S. MARIE    PTCLDY    50  48  93 S3        30.10R
MUNISING         N/A     59  53  80 NW8       30.13R
$$
MIZ004>006-011>014-085-270900-
CENTRAL UPPER MICHIGAN

CITY           SKY/WX    TMP DP  RH WIND       PRES   REMARKS
MANISTIQUE     PTCLDY    50  49  97 NW3       30.13R
ESCANABA       MOCLDY    52  46  82 W5        30.15R
MENOMINEE      MOCLDY    55  50  82 NW3       30.16R
SAWYER-GWINN   MOCLDY    50  47  88 NW6       30.17R
$$
MIZ001>003-009>011-084-270900-
WESTERN UPPER MICHIGAN

CITY           SKY/WX    TMP DP  RH WIND       PRES   REMARKS
IRON MOUNTAIN  MOCLDY    54  50  86 CALM      30.15S
HOUGHTON       CLOUDY    55  50  83 W5        30.14S
COPPER HARBOR    N/A     58  47  66 VRB3      30.13R
$$

ABBREVIATIONS USED IN REMARKS
   TC - TEMPERATURE IN CELSIUS
  WCI - WIND CHILL INDEX
   HX - HEAT INDEX
  VSB - VISIBILITY



USA.gov is the U.S. government's official web portal to all federal, state and local government web resources and services.